Total_Precipitation_Accumulation
1.42 1.81 2.34 2.74 3.27 4.09 4.57 4.63 4.23 3.40 2.79 2.32 2.09 1.87 1.63 1.44 1.24 1.03 0.87 0.75 0.74 0.68 0.69 0.66 0.66 0.72 0.71 0.71 0.85 0.98 0.99 0.83 1.00 1.09 0.90 0.75 0.67 0.64 0.63 0.57 0.56 0.58 0.63
1.26 1.81 2.48 3.06 3.40 3.79 3.99 3.89 3.36 2.58 2.06 1.73 1.55 1.34 1.16 0.96 0.86 0.72 0.65 0.60 0.58 0.57 0.56 0.54 0.51 0.50 0.54 0.56 0.62 0.74 0.75 0.66 0.78 0.88 0.85 0.66 0.59 0.52 0.38 0.40 0.41 0.42 0.54
1.46 2.18 2.91 3.37 3.43 3.30 2.93 2.53 2.18 1.74 1.54 1.43 1.25 1.09 1.01 0.84 0.68 0.50 0.44 0.42 0.38 0.36 0.37 0.34 0.34 0.36 0.40 0.44 0.50 0.59 0.62 0.57 0.55 0.65 0.77 0.62 0.51 0.44 0.39 0.36 0.38 0.46 0.51
1.59 2.26 2.74 2.79 2.74 2.46 2.01 1.76 1.62 1.42 1.23 1.14 1.11 0.94 0.77 0.69 0.56 0.46 0.40 0.35 0.30 0.28 0.26 0.24 0.23 0.24 0.26 0.34 0.36 0.45 0.56 0.56 0.45 0.48 0.56 0.56 0.54 0.48 0.43 0.40 0.37 0.42 0.45
1.16 1.34 1.49 1.50 1.48 1.33 1.36 1.40 1.42 1.40 1.25 1.11 1.05 0.98 0.77 0.66 0.59 0.56 0.49 0.42 0.35 0.30 0.27 0.26 0.24 0.24 0.23 0.26 0.30 0.38 0.47 0.53 0.48 0.44 0.50 0.59 0.58 0.50 0.47 0.42 0.42 0.46 0.39
0.63 0.65 0.66 0.70 0.82 0.75 0.85 0.98 1.00 1.11 1.15 1.10 0.98 0.92 0.78 0.69 0.63 0.58 0.47 0.39 0.32 0.30 0.29 0.28 0.29 0.29 0.28 0.28 0.28 0.29 0.34 0.46 0.54 0.54 0.52 0.57 0.58 0.48 0.44 0.37 0.35 0.42 0.41
0.44 0.51 0.54 0.62 0.72 0.59 0.59 0.71 0.75 0.76 0.81 0.80 0.76 0.77 0.78 0.71 0.60 0.52 0.44 0.35 0.26 0.24 0.26 0.26 0.28 0.30 0.33 0.32 0.30 0.30 0.30 0.37 0.47 0.49 0.53 0.53 0.52 0.56 0.56 0.51 0.43 0.45 0.50
0.28 0.33 0.37 0.44 0.52 0.43 0.42 0.53 0.61 0.59 0.57 0.56 0.55 0.58 0.65 0.57 0.50 0.52 0.44 0.35 0.28 0.24 0.24 0.24 0.24 0.26 0.30 0.34 0.36 0.34 0.34 0.37 0.39 0.39 0.52 0.57 0.52 0.61 0.65 0.68 0.72 0.64 0.65
0.15 0.18 0.19 0.23 0.29 0.30 0.32 0.39 0.48 0.49 0.44 0.45 0.45 0.43 0.51 0.52 0.48 0.47 0.42 0.36 0.37 0.30 0.27 0.26 0.26 0.27 0.29 0.33 0.35 0.35 0.37 0.39 0.40 0.42 0.52 0.59 0.66 0.70 0.66 0.76 0.84 0.85 0.79
0.12 0.11 0.11 0.12 0.15 0.20 0.29 0.36 0.42 0.45 0.42 0.41 0.40 0.33 0.36 0.46 0.53 0.49 0.42 0.40 0.40 0.34 0.32 0.30 0.28 0.28 0.29 0.30 0.33 0.34 0.41 0.46 0.50 0.56 0.61 0.62 0.67 0.76 0.70 0.75 0.82 0.84 0.89
0.12 0.10 0.06 0.05 0.08 0.15 0.21 0.26 0.36 0.45 0.44 0.42 0.45 0.43 0.40 0.39 0.46 0.52 0.52 0.50 0.48 0.39 0.33 0.33 0.34 0.33 0.34 0.36 0.42 0.43 0.46 0.55 0.66 0.73 0.75 0.78 0.79 0.82 0.80 0.85 0.87 0.82 0.89
0.10 0.08 0.06 0.05 0.07 0.10 0.14 0.20 0.26 0.38 0.40 0.42 0.45 0.45 0.46 0.41 0.42 0.48 0.51 0.50 0.53 0.51 0.45 0.41 0.39 0.32 0.30 0.39 0.48 0.56 0.54 0.56 0.64 0.85 1.05 1.06 1.06 0.97 0.88 0.95 0.93 0.89 1.02
0.13 0.10 0.12 0.13 0.12 0.14 0.17 0.23 0.28 0.36 0.46 0.46 0.46 0.47 0.49 0.45 0.44 0.51 0.53 0.50 0.55 0.59 0.56 0.51 0.45 0.37 0.33 0.35 0.41 0.53 0.55 0.61 0.74 0.90 1.02 1.13 1.24 1.13 1.03 1.00 0.99 1.00 1.09
0.14 0.10 0.11 0.13 0.15 0.19 0.23 0.28 0.40 0.37 0.37 0.46 0.50 0.49 0.50 0.52 0.50 0.53 0.56 0.56 0.60 0.62 0.62 0.59 0.56 0.51 0.41 0.37 0.41 0.47 0.54 0.67 0.85 0.90 0.83 0.93 1.18 1.27 1.20 1.07 1.00 1.04 1.09
0.15 0.14 0.14 0.14 0.21 0.25 0.29 0.34 0.35 0.46 0.53 0.62 0.65 0.63 0.67 0.72 0.71 0.69 0.69 0.65 0.63 0.63 0.67 0.68 0.67 0.62 0.51 0.41 0.46 0.55 0.49 0.56 0.66 0.69 0.66 0.68 0.85 1.09 1.25 1.16 1.07 1.07 1.03
0.19 0.20 0.22 0.22 0.22 0.25 0.31 0.36 0.39 0.48 0.61 0.77 0.82 0.83 0.94 0.98 0.98 0.97 0.99 0.93 0.85 0.88 0.94 0.93 0.87 0.80 0.58 0.51 0.49 0.49 0.53 0.59 0.64 0.64 0.65 0.59 0.53 0.62 0.82 1.02 1.14 1.19 1.10
0.32 0.32 0.33 0.31 0.28 0.28 0.32 0.38 0.44 0.56 0.70 0.86 1.01 1.09 1.18 1.27 1.31 1.32 1.29 1.20 1.19 1.22 1.21 1.13 1.03 0.96 0.87 0.70 0.55 0.47 0.49 0.52 0.54 0.59 0.62 0.50 0.42 0.50 0.55 0.69 0.81 0.93 0.98
0.34 0.32 0.39 0.39 0.35 0.39 0.46 0.54 0.64 0.77 0.92 1.06 1.22 1.38 1.37 1.37 1.39 1.39 1.30 1.28 1.34 1.36 1.30 1.21 1.12 1.09 0.99 0.81 0.60 0.51 0.44 0.49 0.53 0.58 0.60 0.58 0.52 0.50 0.56 0.62 0.64 0.68 0.74
0.31 0.31 0.36 0.43 0.49 0.48 0.53 0.62 0.65 0.74 0.91 1.05 1.12 1.19 1.26 1.34 1.41 1.40 1.42 1.44 1.42 1.30 1.16 1.08 1.06 1.04 1.02 0.87 0.69 0.61 0.58 0.64 0.64 0.62 0.61 0.61 0.57 0.56 0.47 0.52 0.56 0.59 0.63
0.28 0.29 0.30 0.34 0.42 0.51 0.54 0.57 0.64 0.76 0.90 1.02 1.05 1.03 1.12 1.25 1.36 1.41 1.42 1.39 1.35 1.30 1.24 1.14 1.12 1.13 1.12 1.00 0.73 0.64 0.64 0.71 0.72 0.76 0.74 0.64 0.56 0.50 0.41 0.46 0.55 0.56 0.59
0.31 0.30 0.32 0.32 0.37 0.46 0.52 0.61 0.70 0.76 0.80 0.88 0.97 1.03 1.15 1.26 1.32 1.38 1.38 1.38 1.38 1.40 1.39 1.31 1.23 1.21 1.18 1.11 0.84 0.70 0.67 0.76 0.87 0.87 0.83 0.80 0.67 0.50 0.45 0.47 0.54 0.54 0.60
0.35 0.35 0.39 0.42 0.42 0.43 0.47 0.54 0.56 0.56 0.61 0.66 0.71 0.75 0.87 1.00 1.07 1.17 1.19 1.24 1.22 1.18 1.17 1.15 1.08 1.05 1.05 0.98 0.86 0.68 0.61 0.70 0.88 0.97 0.99 0.99 0.81 0.59 0.49 0.42 0.40 0.39 0.40
0.41 0.40 0.41 0.40 0.40 0.41 0.45 0.51 0.53 0.53 0.53 0.53 0.54 0.56 0.63 0.79 0.94 1.00 0.99 1.02 1.04 1.02 0.99 1.00 0.98 0.95 0.94 0.87 0.67 0.55 0.46 0.52 0.68 0.85 0.95 0.88 0.74 0.62 0.50 0.42 0.37 0.35 0.34
0.27 0.32 0.34 0.36 0.36 0.35 0.37 0.41 0.43 0.47 0.53 0.53 0.53 0.55 0.59 0.72 0.96 1.10 1.06 1.00 0.99 0.96 0.94 0.90 0.90 0.93 0.98 0.94 0.76 0.58 0.45 0.48 0.61 0.71 0.74 0.74 0.73 0.71 0.66 0.54 0.45 0.37 0.39
0.18 0.20 0.24 0.25 0.24 0.24 0.26 0.31 0.37 0.45 0.48 0.45 0.43 0.43 0.50 0.64 0.86 1.03 1.03 0.91 0.89 0.87 0.87 0.84 0.83 0.80 0.78 0.76 0.66 0.56 0.56 0.62 0.70 0.71 0.79 0.80 0.87 0.90 0.90 0.85 0.76 0.69 0.66
0.17 0.19 0.23 0.25 0.26 0.27 0.31 0.35 0.41 0.48 0.53 0.51 0.46 0.46 0.49 0.57 0.78 0.99 1.05 0.86 0.70 0.69 0.68 0.64 0.62 0.59 0.52 0.49 0.50 0.47 0.47 0.53 0.58 0.59 0.75 0.87 0.96 1.04 1.06 1.07 1.00 0.92 0.84